• In Moldova, Republic
  • List of Countries
  • For 7 days
  • Water Temperature
  • Satellite Maps
  • Weather Map
  • Weather Widgets
  • user-avatar
    Login

    Hourly Weather Annaba

    Today, 17 October, Tuesday

    Time Temperature Precipitation Wind Pressure Humidity
    00:00 +23°C° 0 mm 2 mps 766 mmHg 55%
    01:00 +23°C° 0 mm 2 mps 766 mmHg 54%
    02:00 +21°C° 0 mm 2 mps 766 mmHg 54%
    03:00 +21°C° 0 mm 2 mps 766 mmHg 54%
    04:00 +21°C° 0 mm 2 mps 765 mmHg 54%
    05:00 +21°C° 0 mm 2 mps 765 mmHg 55%
    06:00 +20°C° 0 mm 2 mps 765 mmHg 56%
    07:00 +20°C° 0 mm 2 mps 765 mmHg 57%
    08:00 +23°C° 0 mm 1 mps 765 mmHg 51%
    09:00 +26°C° 0 mm 1 mps 765 mmHg 46%
    10:00 +28°C° 0 mm 1 mps 766 mmHg 40%
    11:00 +29°C° 0 mm 1 mps 765 mmHg 36%
    12:00 +30°C° 0 mm 1 mps 765 mmHg 33%
    13:00 +31°C° 0 mm 2 mps 765 mmHg 29%
    14:00 +31°C° 0 mm 2 mps 764 mmHg 30%
    15:00 +30°C° 0 mm 3 mps 764 mmHg 32%
    16:00 +30°C° 0 mm 3 mps 763 mmHg 33%
    17:00 +28°C° 0 mm 3 mps 764 mmHg 40%
    18:00 +26°C° 0 mm 3 mps 764 mmHg 46%
    19:00 +24°C° 0 mm 3 mps 764 mmHg 53%
    20:00 +24°C° 0 mm 2 mps 764 mmHg 55%
    21:00 +23°C° 0 mm 2 mps 764 mmHg 58%
    22:00 +23°C° 0 mm 1 mps 764 mmHg 60%
    23:00 +23°C° 0 mm 1 mps 764 mmHg 58%

    Tomorrow, 18 October, Wednesday

    Time Temperature Precipitation Wind Pressure Humidity
    00:00 +23°C° 0 mm 1 mps 764 mmHg 56%
    01:00 +22°C° 0 mm 1 mps 763 mmHg 54%
    02:00 +22°C° 0 mm 1 mps 763 mmHg 53%
    03:00 +22°C° 0 mm 1 mps 763 mmHg 51%
    04:00 +22°C° 0 mm 1 mps 762 mmHg 50%
    05:00 +22°C° 0 mm 1 mps 762 mmHg 50%
    06:00 +21°C° 0 mm 1 mps 762 mmHg 50%
    07:00 +21°C° 0 mm 1 mps 762 mmHg 50%
    08:00 +24°C° 0 mm 1 mps 762 mmHg 45%
    09:00 +26°C° 0 mm 1 mps 762 mmHg 40%
    10:00 +28°C° 0 mm 1 mps 762 mmHg 35%
    11:00 +29°C° 0 mm 1 mps 762 mmHg 33%
    12:00 +30°C° 0 mm 1 mps 761 mmHg 31%
    13:00 +31°C° 0 mm 2 mps 761 mmHg 28%
    14:00 +31°C° 0 mm 2 mps 760 mmHg 29%
    15:00 +31°C° 0 mm 3 mps 760 mmHg 29%
    16:00 +30°C° 0 mm 3 mps 759 mmHg 30%
    17:00 +29°C° 0 mm 3 mps 759 mmHg 35%
    18:00 +27°C° 0 mm 3 mps 759 mmHg 40%
    19:00 +25°C° 0 mm 3 mps 760 mmHg 44%
    20:00 +25°C° 0 mm 3 mps 760 mmHg 45%
    21:00 +24°C° 0 mm 3 mps 760 mmHg 45%
    22:00 +24°C° 0 mm 2 mps 760 mmHg 46%
    23:00 +24°C° 0 mm 2 mps 760 mmHg 44%

    Day after tomorrow, 19 October, Thursday

    Time Temperature Precipitation Wind Pressure Humidity
    00:00 +24°C° 0 mm 2 mps 759 mmHg 42%
    01:00 +24°C° 0 mm 2 mps 759 mmHg 40%
    02:00 +24°C° 0 mm 2 mps 759 mmHg 40%
    03:00 +23°C° 0 mm 2 mps 758 mmHg 40%
    04:00 +23°C° 0 mm 2 mps 758 mmHg 40%
    05:00 +22°C° 0 mm 3 mps 758 mmHg 42%
    06:00 +22°C° 0 mm 3 mps 758 mmHg 43%
    07:00 +21°C° 0 mm 3 mps 758 mmHg 44%
    08:00 +24°C° 0 mm 3 mps 758 mmHg 41%
    09:00 +26°C° 0 mm 3 mps 759 mmHg 37%
    10:00 +28°C° 0 mm 3 mps 759 mmHg 33%
    11:00 +29°C° 0 mm 2 mps 758 mmHg 31%
    12:00 +30°C° 0 mm 2 mps 758 mmHg 30%
    13:00 +31°C° 0 mm 2 mps 758 mmHg 28%
    14:00 +30°C° 0 mm 2 mps 757 mmHg 30%
    15:00 +30°C° 0 mm 3 mps 757 mmHg 31%
    16:00 +29°C° 0 mm 3 mps 756 mmHg 32%
    17:00 +28°C° 0 mm 3 mps 757 mmHg 35%
    18:00 +27°C° 0 mm 3 mps 757 mmHg 38%
    19:00 +26°C° 0 mm 4 mps 757 mmHg 41%
    20:00 +26°C° 0 mm 3 mps 758 mmHg 41%
    21:00 +25°C° 0 mm 3 mps 758 mmHg 42%
    22:00 +25°C° 0 mm 2 mps 758 mmHg 42%
    23:00 +25°C° 0 mm 3 mps 759 mmHg 44%

    20 October, Friday

    Time Temperature Precipitation Wind Pressure Humidity
    00:00 +25°C° 0 mm 3 mps 759 mmHg 46%
    01:00 +23°C° 0 mm 4 mps 759 mmHg 49%
    02:00 +23°C° 0 mm 4 mps 759 mmHg 52%
    03:00 +22°C° 0 mm 4 mps 759 mmHg 55%
    04:00 +22°C° 0 mm 4 mps 759 mmHg 59%
    05:00 +22°C° 0.3 mm 3 mps 759 mmHg 62%
    06:00 +21°C° 0.3 mm 3 mps 759 mmHg 65%
    07:00 +21°C° 0.3 mm 3 mps 760 mmHg 68%
    08:00 +22°C° 0.1 mm 3 mps 760 mmHg 66%
    09:00 +22°C° 0.1 mm 3 mps 761 mmHg 64%
    10:00 +24°C° 0.1 mm 3 mps 761 mmHg 62%
    11:00 +25°C° 0.1 mm 3 mps 761 mmHg 62%
    12:00 +25°C° 0.1 mm 3 mps 761 mmHg 61%
    13:00 +25°C° 0.1 mm 3 mps 761 mmHg 61%
    14:00 +25°C° 0.2 mm 4 mps 761 mmHg 63%
    15:00 +23°C° 0.2 mm 4 mps 761 mmHg 65%
    16:00 +23°C° 0.2 mm 4 mps 761 mmHg 67%
    17:00 +24°C° 0.2 mm 3 mps 761 mmHg 70%
    18:00 +22°C° 0.2 mm 3 mps 762 mmHg 73%
    19:00 +21°C° 0.2 mm 3 mps 762 mmHg 76%
    20:00 +21°C° 0.1 mm 3 mps 763 mmHg 78%
    21:00 +21°C° 0.1 mm 3 mps 763 mmHg 80%
    22:00 +20°C° 0.1 mm 2 mps 763 mmHg 82%
    23:00 +20°C° 0 mm 2 mps 764 mmHg 84%

    21 October, Saturday

    Time Temperature Precipitation Wind Pressure Humidity
    00:00 +20°C° 0 mm 2 mps 764 mmHg 85%
    01:00 +19°C° 0 mm 2 mps 764 mmHg 86%
    02:00 +19°C° 0 mm 2 mps 764 mmHg 87%
    03:00 +19°C° 0 mm 2 mps 764 mmHg 87%
    04:00 +19°C° 0 mm 2 mps 764 mmHg 88%
    05:00 +19°C° 0 mm 2 mps 764 mmHg 88%
    06:00 +18°C° 0 mm 2 mps 764 mmHg 89%
    07:00 +18°C° 0 mm 2 mps 764 mmHg 89%
    08:00 +20°C° 0 mm 2 mps 764 mmHg 82%
    09:00 +23°C° 0 mm 2 mps 765 mmHg 74%
    10:00 +24°C° 0 mm 2 mps 765 mmHg 67%
    11:00 +25°C° 0 mm 2 mps 765 mmHg 64%
    12:00 +26°C° 0 mm 3 mps 764 mmHg 60%
    13:00 +26°C° 0 mm 3 mps 764 mmHg 57%
    14:00 +26°C° 0 mm 3 mps 764 mmHg 58%
    15:00 +26°C° 0 mm 3 mps 764 mmHg 59%
    16:00 +26°C° 0 mm 3 mps 763 mmHg 60%
    17:00 +25°C° 0 mm 2 mps 764 mmHg 66%
    18:00 +24°C° 0 mm 2 mps 764 mmHg 73%
    19:00 +23°C° 0 mm 1 mps 764 mmHg 79%
    20:00 +22°C° 0 mm 1 mps 764 mmHg 81%
    21:00 +22°C° 0 mm 1 mps 764 mmHg 83%
    22:00 +22°C° 0 mm 1 mps 765 mmHg 86%
    23:00 +22°C° 0 mm 1 mps 764 mmHg 85%

    22 October, Sunday

    Time Temperature Precipitation Wind Pressure Humidity
    00:00 +21°C° 0 mm 1 mps 764 mmHg 85%
    01:00 +20°C° 0 mm 2 mps 764 mmHg 84%
    02:00 +20°C° 0 mm 2 mps 764 mmHg 84%
    03:00 +20°C° 0 mm 2 mps 764 mmHg 83%
    04:00 +20°C° 0 mm 2 mps 763 mmHg 82%
    05:00 +20°C° 0 mm 2 mps 763 mmHg 81%
    06:00 +20°C° 0 mm 2 mps 763 mmHg 80%
    07:00 +20°C° 0 mm 2 mps 763 mmHg 78%
    08:00 +23°C° 0 mm 1 mps 764 mmHg 69%
    09:00 +25°C° 0 mm 1 mps 764 mmHg 60%
    10:00 +27°C° 0 mm 1 mps 764 mmHg 50%
    11:00 +28°C° 0 mm 2 mps 764 mmHg 48%
    12:00 +29°C° 0 mm 3 mps 764 mmHg 46%
    13:00 +29°C° 0 mm 4 mps 763 mmHg 44%
    14:00 +28°C° 0 mm 4 mps 763 mmHg 48%
    15:00 +28°C° 0 mm 4 mps 763 mmHg 52%
    16:00 +27°C° 0 mm 4 mps 763 mmHg 57%
    17:00 +26°C° 0 mm 4 mps 763 mmHg 64%
    18:00 +24°C° 0 mm 3 mps 764 mmHg 71%
    19:00 +22°C° 0 mm 3 mps 764 mmHg 78%
    20:00 +22°C° 0.1 mm 3 mps 765 mmHg 82%
    21:00 +21°C° 0.1 mm 3 mps 765 mmHg 86%
    22:00 +21°C° 0.1 mm 3 mps 765 mmHg 89%
    23:00 +20°C° 0.4 mm 3 mps 765 mmHg 90%
    Show more